TimeCDT,TemperatureF,Dew PointF,Humidity,Sea Level PressureIn,VisibilityMPH,Wind Direction,Wind SpeedMPH,Gust SpeedMPH,PrecipitationIn,Events,Conditions,WindDirDegrees,DateUTC
12:15 AM,79.2,74.8,87,30.02,7.0,East,4.6,-,N/A,,Clear,80,2013-08-27 05:15:00
12:35 AM,79.2,74.8,87,30.02,7.0,East,3.5,-,N/A,,Clear,80,2013-08-27 05:35:00
12:55 AM,78.8,74.7,87,30.02,7.0,Calm,Calm,-,N/A,,Clear,0,2013-08-27 05:55:00
1:15 AM,78.8,74.7,87,30.01,7.0,Calm,Calm,-,N/A,,Clear,0,2013-08-27 06:15:00
1:35 AM,78.8,74.8,88,30.01,10.0,Calm,Calm,-,N/A,,Clear,0,2013-08-27 06:35:00
1:55 AM,78.6,74.8,88,30.00,7.0,Calm,Calm,-,N/A,,Scattered Clouds,0,2013-08-27 06:55:00
2:15 AM,78.4,74.8,89,30.00,7.0,Calm,Calm,-,N/A,,Scattered Clouds,0,2013-08-27 07:15:00
2:35 AM,78.4,75.0,89,29.99,7.0,Calm,Calm,-,N/A,,Scattered Clouds,0,2013-08-27 07:35:00
2:55 AM,78.8,75.2,89,29.99,7.0,NNE,3.5,-,N/A,,Scattered Clouds,30,2013-08-27 07:55:00
3:15 AM,78.8,75.2,89,29.99,7.0,ENE,3.5,-,N/A,,Scattered Clouds,60,2013-08-27 08:15:00
3:35 AM,78.8,75.2,89,29.99,7.0,East,3.5,-,N/A,,Scattered Clouds,90,2013-08-27 08:35:00
3:55 AM,78.3,75.0,90,29.98,5.0,East,3.5,-,N/A,,Scattered Clouds,100,2013-08-27 08:55:00
4:15 AM,78.1,74.8,90,29.98,5.0,ESE,3.5,-,N/A,,Scattered Clouds,110,2013-08-27 09:15:00
4:35 AM,78.3,75.2,90,29.98,7.0,ESE,3.5,-,N/A,,Clear,120,2013-08-27 09:35:00
4:55 AM,78.3,75.0,90,29.97,5.0,ESE,3.5,-,N/A,,Clear,110,2013-08-27 09:55:00
5:15 AM,78.1,74.8,90,29.97,5.0,ESE,3.5,-,N/A,,Clear,120,2013-08-27 10:15:00
5:35 AM,77.9,74.7,90,29.98,5.0,East,3.5,-,N/A,,Clear,100,2013-08-27 10:35:00
5:55 AM,77.9,74.5,89,29.99,5.0,ESE,3.5,-,N/A,,Clear,110,2013-08-27 10:55:00
6:15 AM,77.9,74.5,89,29.99,5.0,Calm,Calm,-,N/A,,Clear,0,2013-08-27 11:15:00
6:35 AM,77.9,74.5,89,30.00,5.0,Calm,Calm,-,N/A,,Clear,0,2013-08-27 11:35:00
6:55 AM,77.9,74.5,89,30.01,5.0,Calm,Calm,-,N/A,,Clear,0,2013-08-27 11:55:00
7:15 AM,77.7,74.3,89,30.01,5.0,Calm,Calm,-,N/A,,Clear,0,2013-08-27 12:15:00
7:35 AM,77.5,74.3,90,30.01,4.0,Calm,Calm,-,N/A,,Clear,0,2013-08-27 12:35:00
7:55 AM,77.9,74.7,90,30.02,4.0,NE,3.5,-,N/A,,Clear,50,2013-08-27 12:55:00
8:15 AM,78.1,75.0,90,30.03,4.0,ENE,3.5,-,N/A,,Clear,60,2013-08-27 13:15:00
8:35 AM,78.6,75.2,89,30.03,4.0,East,3.5,-,N/A,,Clear,80,2013-08-27 13:35:00
8:55 AM,79.3,75.7,89,30.03,4.0,East,4.6,-,N/A,,Clear,80,2013-08-27 13:55:00
9:15 AM,81.1,76.8,87,30.04,4.0,East,5.8,-,N/A,,Clear,100,2013-08-27 14:15:00
9:35 AM,84.0,75.9,76,30.04,4.0,ESE,9.2,-,N/A,,Haze,110,2013-08-27 14:35:00
9:55 AM,86.0,75.6,71,30.05,5.0,SE,10.4,-,N/A,,Haze,130,2013-08-27 14:55:00
10:15 AM,86.9,75.2,68,30.05,4.0,SE,10.4,-,N/A,,Haze,140,2013-08-27 15:15:00
10:35 AM,87.8,73.9,63,30.05,5.0,ESE,13.8,18.4,N/A,,Haze,120,2013-08-27 15:35:00
10:55 AM,88.7,73.8,61,30.05,5.0,SE,9.2,-,N/A,,Haze,140,2013-08-27 15:55:00
11:15 AM,89.1,71.1,55,30.05,5.0,SSE,11.5,-,N/A,,Haze,150,2013-08-27 16:15:00
11:35 AM,89.8,71.2,54,30.05,5.0,SE,12.7,18.4,N/A,,Haze,130,2013-08-27 16:35:00
11:55 AM,90.9,69.8,50,30.05,5.0,SSE,12.7,18.4,N/A,,Haze,150,2013-08-27 16:55:00
12:15 PM,92.1,68.7,46,30.05,5.0,SSE,12.7,21.9,N/A,,Haze,150,2013-08-27 17:15:00
12:35 PM,91.9,69.4,48,30.05,5.0,SSE,11.5,-,N/A,,Haze,160,2013-08-27 17:35:00
12:55 PM,92.5,68.5,45,30.04,7.0,SE,10.4,17.3,N/A,,Scattered Clouds,140,2013-08-27 17:55:00
1:15 PM,92.3,67.3,44,30.03,7.0,SE,12.7,-,N/A,,Mostly Cloudy,130,2013-08-27 18:15:00
1:35 PM,94.5,64.8,37,30.03,7.0,SSE,11.5,-,N/A,,Scattered Clouds,150,2013-08-27 18:35:00
1:55 PM,95.0,65.1,37,30.02,7.0,SE,10.4,-,N/A,,Clear,140,2013-08-27 18:55:00
2:15 PM,95.0,65.7,38,30.02,7.0,SE,11.5,-,N/A,,Scattered Clouds,140,2013-08-27 19:15:00
2:35 PM,90.1,72.0,55,30.02,7.0,ESE,12.7,-,N/A,,Mostly Cloudy,120,2013-08-27 19:35:00
2:55 PM,93.4,69.4,45,30.00,7.0,East,15.0,-,N/A,,Scattered Clouds,100,2013-08-27 19:55:00
3:15 PM,93.9,69.1,44,29.99,7.0,East,11.5,16.1,N/A,,Scattered Clouds,100,2013-08-27 20:15:00
3:35 PM,93.2,66.6,41,29.99,7.0,ESE,13.8,19.6,N/A,,Mostly Cloudy,110,2013-08-27 20:35:00
3:55 PM,87.4,71.8,60,29.99,7.0,SSW,6.9,-,N/A,,Mostly Cloudy,200,2013-08-27 20:55:00
4:15 PM,88.7,71.1,56,29.99,7.0,SSW,5.8,-,N/A,,Scattered Clouds,200,2013-08-27 21:15:00
4:35 PM,83.8,70.9,65,29.99,1.2,West,4.6,29.9,0.15,Rain,Heavy Rain,280,2013-08-27 21:35:00
4:55 PM,86.7,73.6,65,29.99,5.0,SE,6.9,10.4,0.15,,Haze,130,2013-08-27 21:55:00
5:15 PM,89.4,73.8,60,29.99,5.0,SE,5.8,-,N/A,,Haze,140,2013-08-27 22:15:00
5:35 PM,91.4,71.2,51,29.99,7.0,SE,16.1,-,N/A,,Clear,130,2013-08-27 22:35:00
5:55 PM,91.4,72.0,53,29.99,7.0,ESE,12.7,-,N/A,,Clear,110,2013-08-27 22:55:00
6:15 PM,91.4,70.2,50,29.99,7.0,ESE,16.1,-,N/A,,Clear,120,2013-08-27 23:15:00
6:35 PM,90.7,70.0,50,29.99,5.0,ESE,15.0,-,N/A,,Haze,110,2013-08-27 23:35:00
6:55 PM,89.8,69.1,50,29.99,5.0,ESE,16.1,-,N/A,,Haze,120,2013-08-27 23:55:00
7:15 PM,89.2,69.3,52,29.99,5.0,ESE,11.5,-,N/A,,Haze,120,2013-08-28 00:15:00
7:35 PM,88.0,69.8,55,29.99,7.0,ESE,12.7,16.1,N/A,,Clear,120,2013-08-28 00:35:00
7:55 PM,86.9,70.3,58,29.99,7.0,ESE,11.5,-,N/A,,Clear,120,2013-08-28 00:55:00
8:15 PM,86.0,72.5,64,29.99,7.0,ESE,10.4,-,N/A,,Clear,110,2013-08-28 01:15:00
8:35 PM,85.1,72.5,66,30.00,7.0,ESE,10.4,-,N/A,,Clear,110,2013-08-28 01:35:00
8:55 PM,84.2,72.5,68,30.00,7.0,ESE,10.4,-,N/A,,Clear,110,2013-08-28 01:55:00
9:15 PM,83.3,72.7,70,30.00,7.0,ESE,8.1,-,N/A,,Clear,110,2013-08-28 02:15:00
9:35 PM,82.8,73.0,72,30.00,7.0,ESE,8.1,-,N/A,,Clear,110,2013-08-28 02:35:00
9:55 PM,82.6,73.4,74,30.01,7.0,ESE,6.9,-,N/A,,Clear,120,2013-08-28 02:55:00
10:15 PM,82.4,73.9,75,30.02,7.0,ESE,8.1,-,N/A,,Clear,110,2013-08-28 03:15:00
10:35 PM,82.0,74.3,77,30.02,7.0,ESE,8.1,-,N/A,,Clear,120,2013-08-28 03:35:00
10:55 PM,81.5,74.5,79,30.02,7.0,ESE,6.9,-,N/A,,Clear,120,2013-08-28 03:55:00
11:15 PM,80.8,74.5,81,30.03,7.0,SE,6.9,-,N/A,,Clear,130,2013-08-28 04:15:00
11:35 PM,80.2,74.5,83,30.03,7.0,SE,5.8,-,N/A,,Clear,130,2013-08-28 04:35:00
11:55 PM,79.9,74.5,83,30.03,7.0,SE,5.8,-,N/A,,Clear,130,2013-08-28 04:55:00